| time (UTC) | temp F | wind direction | speed MPH | gust MPH | rain 1hr in | rain 24hr in | rain mn in | humidity % | barometer mb |
| 20260507060504 | 37 | 234 | 1.0 | 2.0 | 0.00 | 0.00 | 0.00 | 68 | 1014.6 |
| 20260507060012 | 37 | 282 | 0.0 | 2.0 | 0.00 | 0.00 | 0.00 | 68 | 1014.7 |
| 20260507055506 | 37 | 238 | 1.0 | 2.0 | 0.00 | 0.00 | 0.00 | 68 | 1014.6 |
| 20260507055005 | 37 | 238 | 1.0 | 3.0 | 0.00 | 0.00 | 0.00 | 69 | 1014.6 |
| 20260507054504 | 37 | 221 | 1.0 | 3.0 | 0.00 | 0.00 | 0.00 | 69 | 1014.6 |
| 20260507054004 | 38 | 232 | 1.0 | 3.0 | 0.00 | 0.00 | 0.00 | 68 | 1014.6 |
| 20260507053503 | 38 | 227 | 1.0 | 2.0 | 0.00 | 0.00 | 0.00 | 68 | 1014.7 |
| 20260507053004 | 38 | 229 | 1.0 | 2.0 | 0.00 | 0.00 | 0.00 | 69 | 1014.7 |
| 20260507052503 | 38 | 265 | 0.0 | 2.0 | 0.00 | 0.00 | 0.00 | 69 | 1014.7 |
| 20260507052006 | 38 | 265 | 0.0 | 2.0 | 0.00 | 0.00 | 0.00 | 69 | 1014.7 |
| 20260507051518 | 38 | 250 | 1.0 | 2.0 | 0.00 | 0.00 | 0.00 | 68 | 1014.8 |
| 20260507051004 | 38 | 238 | 0.0 | 2.0 | 0.00 | 0.00 | 0.00 | 68 | 1014.8 |
| 20260507050504 | 38 | 265 | 1.0 | 2.0 | 0.00 | 0.00 | 0.00 | 68 | 1014.9 |
| 20260507050021 | 38 | 250 | 1.0 | 2.0 | 0.00 | 0.00 | 0.00 | 68 | 1014.8 |
| 20260507045510 | 38 | 265 | 1.0 | 2.0 | 0.00 | 0.00 | 0.00 | 68 | 1014.8 |
| 20260507045004 | 38 | 243 | 1.0 | 2.0 | 0.00 | 0.00 | 0.00 | 67 | 1014.8 |
| 20260507044506 | 38 | 265 | 1.0 | 3.0 | 0.00 | 0.00 | 0.00 | 67 | 1014.9 |
| 20260507044003 | 38 | 265 | 1.0 | 3.0 | 0.00 | 0.00 | 0.00 | 67 | 1014.9 |
| 20260507043503 | 38 | 214 | 1.0 | 3.0 | 0.00 | 0.00 | 0.00 | 67 | 1014.9 |
| 20260507043015 | 38 | 217 | 1.0 | 2.0 | 0.00 | 0.00 | 0.00 | 66 | 1014.9 |
| 20260507042506 | 38 | 205 | 1.0 | 2.0 | 0.00 | 0.00 | 0.00 | 65 | 1014.9 |
| 20260507042009 | 38 | 221 | 1.0 | 2.0 | 0.00 | 0.00 | 0.00 | 65 | 1015.0 |
| 20260507041510 | 38 | 265 | 1.0 | 2.0 | 0.00 | 0.00 | 0.00 | 65 | 1015.0 |
| 20260507041007 | 38 | 221 | 0.0 | 2.0 | 0.00 | 0.00 | 0.00 | 65 | 1015.0 |
| 20260507040507 | 38 | 265 | 1.0 | 2.0 | 0.00 | 0.00 | 0.00 | 65 | 1015.0 |
| 20260507040008 | 38 | 250 | 1.0 | 2.0 | 0.00 | 0.00 | 0.00 | 64 | 1015.1 |
| 20260507035504 | 38 | 265 | 1.0 | 2.0 | 0.00 | 0.00 | 0.00 | 64 | 1015.1 |
| 20260507035007 | 38 | 265 | 1.0 | 2.0 | 0.00 | 0.00 | 0.00 | 65 | 1015.1 |
| 20260507034509 | 38 | 279 | 0.0 | 2.0 | 0.00 | 0.00 | 0.00 | 65 | 1015.1 |
| 20260507034003 | 38 | 265 | 1.0 | 2.0 | 0.00 | 0.00 | 0.00 | 64 | 1015.2 |
| 20260507033505 | 38 | 265 | 1.0 | 2.0 | 0.00 | 0.00 | 0.00 | 64 | 1015.2 |
| 20260507033015 | 38 | 275 | 1.0 | 2.0 | 0.00 | 0.00 | 0.00 | 64 | 1015.2 |
| 20260507032504 | 38 | 265 | 1.0 | 2.0 | 0.00 | 0.00 | 0.00 | 64 | 1015.3 |
| 20260507032005 | 38 | 282 | 1.0 | 2.0 | 0.00 | 0.00 | 0.00 | 65 | 1015.3 |
| 20260507031520 | 38 | 279 | 1.0 | 2.0 | 0.00 | 0.00 | 0.00 | 66 | 1015.3 |
| 20260507031008 | 38 | 279 | 0.0 | 3.0 | 0.00 | 0.00 | 0.00 | 64 | 1015.4 |
| 20260507030502 | 38 | 298 | 1.0 | 3.0 | 0.00 | 0.00 | 0.00 | 62 | 1015.4 |
| 20260507030018 | 38 | 336 | 1.0 | 3.0 | 0.00 | 0.00 | 0.00 | 61 | 1015.5 |
| 20260507025505 | 38 | 301 | 1.0 | 3.0 | 0.00 | 0.00 | 0.00 | 60 | 1015.4 |
| 20260507025009 | 38 | 303 | 1.0 | 3.0 | 0.00 | 0.00 | 0.00 | 60 | 1015.4 |
| 20260507024508 | 38 | 34 | 1.0 | 3.0 | 0.00 | 0.00 | 0.00 | 60 | 1015.4 |
| 20260507024002 | 38 | 301 | 1.0 | 2.0 | 0.00 | 0.00 | 0.00 | 58 | 1015.5 |
| 20260507023505 | 39 | 309 | 1.0 | 2.0 | 0.00 | 0.00 | 0.00 | 57 | 1015.4 |
| 20260507023007 | 39 | 323 | 1.0 | 3.0 | 0.00 | 0.00 | 0.00 | 58 | 1015.4 |
| 20260507022506 | 39 | 291 | 1.0 | 3.0 | 0.00 | 0.00 | 0.00 | 58 | 1015.5 |
| 20260507022005 | 39 | 336 | 1.0 | 3.0 | 0.00 | 0.00 | 0.00 | 57 | 1015.4 |
| 20260507021522 | 39 | 316 | 1.0 | 3.0 | 0.00 | 0.00 | 0.00 | 56 | 1015.5 |
| 20260507021007 | 40 | 330 | 2.0 | 3.0 | 0.00 | 0.00 | 0.00 | 56 | 1015.5 |
| 20260507020506 | 40 | 317 | 1.0 | 4.0 | 0.00 | 0.00 | 0.00 | 56 | 1015.5 |
| 20260507020028 | 40 | 330 | 2.0 | 4.0 | 0.00 | 0.00 | 0.00 | 56 | 1015.4 |
| 20260507015509 | 40 | 313 | 1.0 | 3.0 | 0.00 | 0.00 | 0.00 | 54 | 1015.5 |
| 20260507015006 | 41 | 303 | 1.0 | 4.0 | 0.00 | 0.00 | 0.00 | 53 | 1015.5 |
| 20260507014508 | 41 | 309 | 2.0 | 4.0 | 0.00 | 0.00 | 0.00 | 52 | 1015.4 |
| 20260507014002 | 41 | 309 | 1.0 | 5.0 | 0.00 | 0.00 | 0.00 | 52 | 1015.5 |
| 20260507013503 | 41 | 265 | 1.0 | 6.0 | 0.00 | 0.00 | 0.00 | 52 | 1015.5 |
| 20260507013019 | 41 | 329 | 3.0 | 6.0 | 0.00 | 0.00 | 0.00 | 51 | 1015.5 |
| 20260507012508 | 42 | 293 | 2.0 | 5.0 | 0.00 | 0.00 | 0.00 | 51 | 1015.5 |
| 20260507012012 | 42 | 334 | 2.0 | 7.0 | 0.00 | 0.00 | 0.00 | 52 | 1015.6 |
| 20260507011532 | 42 | 291 | 1.0 | 7.0 | 0.00 | 0.00 | 0.00 | 50 | 1015.6 |
| 20260507011009 | 42 | 325 | 2.0 | 6.0 | 0.00 | 0.00 | 0.00 | 49 | 1015.6 |
| 20260507010509 | 43 | 342 | 2.0 | 8.0 | 0.00 | 0.00 | 0.00 | 49 | 1015.7 |
| 20260507010010 | 43 | 300 | 2.0 | 8.0 | 0.00 | 0.00 | 0.00 | 49 | 1015.7 |
| 20260507005507 | 43 | 300 | 2.0 | 8.0 | 0.00 | 0.00 | 0.00 | 48 | 1015.7 |
| 20260507005006 | 43 | 333 | 3.0 | 10.0 | 0.00 | 0.00 | 0.00 | 48 | 1015.7 |
| 20260507004517 | 44 | 330 | 3.0 | 11.0 | 0.00 | 0.00 | 0.00 | 47 | 1015.7 |
| 20260507004006 | 44 | 309 | 5.0 | 12.0 | 0.00 | 0.00 | 0.00 | 47 | 1015.8 |
| 20260507003508 | 44 | 291 | 8.0 | 12.0 | 0.00 | 0.00 | 0.00 | 46 | 1015.8 |
| 20260507003020 | 44 | 273 | 6.0 | 12.0 | 0.00 | 0.00 | 0.00 | 46 | 1015.8 |
| 20260507002507 | 45 | 315 | 5.0 | 13.0 | 0.00 | 0.00 | 0.00 | 46 | 1015.8 |
| 20260507002009 | 45 | 34 | 7.0 | 13.0 | 0.00 | 0.00 | 0.00 | 46 | 1015.8 |
| 20260507001523 | 45 | 248 | 7.0 | 13.0 | 0.00 | 0.00 | 0.00 | 47 | 1015.9 |
| 20260507001009 | 45 | 311 | 7.0 | 14.0 | 0.00 | 0.00 | 0.00 | 48 | 1015.8 |
| 20260507000506 | 45 | 235 | 7.0 | 14.0 | 0.00 | 0.00 | 0.00 | 46 | 1015.8 |
| 20260507000023 | 45 | 273 | 6.0 | 14.0 | 0.00 | 0.00 | 0.00 | 48 | 1015.8 |
| 20260506235508 | 44 | 298 | 6.0 | 15.0 | 0.00 | 0.00 | 0.00 | 49 | 1015.9 |
| 20260506235010 | 44 | 323 | 8.0 | 15.0 | 0.00 | 0.00 | 0.00 | 48 | 1015.8 |
| 20260506234513 | 44 | 273 | 8.0 | 15.0 | 0.00 | 0.00 | 0.00 | 48 | 1015.9 |
| 20260506234006 | 44 | 293 | 9.0 | 15.0 | 0.00 | 0.00 | 0.00 | 47 | 1015.9 |
| 20260506233507 | 44 | 273 | 7.0 | 13.0 | 0.00 | 0.00 | 0.00 | 48 | 1016.0 |
| 20260506233016 | 44 | 317 | 8.0 | 14.0 | 0.00 | 0.00 | 0.00 | 46 | 1016.0 |
| 20260506232507 | 45 | 273 | 7.0 | 14.0 | 0.00 | 0.00 | 0.00 | 48 | 1016.0 |
| 20260506232011 | 45 | 268 | 6.0 | 13.0 | 0.00 | 0.00 | 0.00 | 48 | 1016.0 |
| 20260506231525 | 45 | 262 | 6.0 | 17.0 | 0.00 | 0.00 | 0.00 | 47 | 1016.0 |
| 20260506231009 | 45 | 297 | 5.0 | 17.0 | 0.00 | 0.00 | 0.00 | 48 | 1016.0 |
| 20260506230506 | 45 | 286 | 9.0 | 20.0 | 0.00 | 0.00 | 0.00 | 47 | 1016.0 |
| 20260506230026 | 45 | 257 | 10.0 | 20.0 | 0.00 | 0.00 | 0.00 | 47 | 1015.9 |
| 20260506225503 | 45 | 303 | 6.0 | 16.0 | 0.00 | 0.00 | 0.00 | 48 | 1016.0 |
| 20260506225008 | 45 | 207 | 8.0 | 17.0 | 0.00 | 0.00 | 0.00 | 47 | 1016.0 |
| 20260506224524 | 45 | 301 | 6.0 | 17.0 | 0.00 | 0.00 | 0.00 | 47 | 1016.1 |
| 20260506224009 | 45 | 305 | 8.0 | 17.0 | 0.00 | 0.00 | 0.00 | 46 | 1016.2 |
| 20260506223507 | 45 | 297 | 9.0 | 20.0 | 0.00 | 0.00 | 0.00 | 47 | 1016.1 |
| 20260506223024 | 45 | 305 | 9.0 | 20.0 | 0.00 | 0.00 | 0.00 | 46 | 1016.1 |
| 20260506222507 | 45 | 315 | 6.0 | 14.0 | 0.00 | 0.00 | 0.00 | 47 | 1016.1 |
| 20260506222010 | 45 | 279 | 7.0 | 17.0 | 0.00 | 0.00 | 0.00 | 47 | 1016.1 |
| 20260506221522 | 46 | 290 | 9.0 | 17.0 | 0.00 | 0.00 | 0.00 | 45 | 1016.1 |
| 20260506221011 | 46 | 317 | 8.0 | 15.0 | 0.00 | 0.00 | 0.00 | 46 | 1016.2 |
| 20260506220509 | 46 | 300 | 9.0 | 14.0 | 0.00 | 0.00 | 0.00 | 47 | 1016.2 |
| 20260506220018 | 46 | 328 | 5.0 | 16.0 | 0.00 | 0.00 | 0.00 | 49 | 1016.2 |
| 20260506215507 | 46 | 316 | 8.0 | 16.0 | 0.00 | 0.00 | 0.00 | 47 | 1016.3 |
| 20260506215007 | 46 | 242 | 6.0 | 14.0 | 0.00 | 0.00 | 0.00 | 51 | 1016.4 |
| 20260506214517 | 45 | 311 | 6.0 | 14.0 | 0.00 | 0.00 | 0.00 | 47 | 1016.3 |
| 20260506214008 | 45 | 287 | 5.0 | 16.0 | 0.00 | 0.00 | 0.00 | 48 | 1016.3 |
| 20260506213508 | 46 | 250 | 7.0 | 17.0 | 0.00 | 0.00 | 0.00 | 48 | 1016.5 |
| 20260506213024 | 46 | 242 | 6.0 | 17.0 | 0.00 | 0.00 | 0.00 | 47 | 1016.5 |
| 20260506212508 | 46 | 248 | 8.0 | 16.0 | 0.00 | 0.00 | 0.00 | 49 | 1016.6 |
| 20260506212008 | 45 | 267 | 7.0 | 17.0 | 0.00 | 0.00 | 0.00 | 49 | 1016.5 |
| 20260506211529 | 45 | 225 | 9.0 | 17.0 | 0.00 | 0.00 | 0.00 | 50 | 1016.6 |
| 20260506211009 | 45 | 255 | 9.0 | 15.0 | 0.00 | 0.00 | 0.00 | 49 | 1016.6 |
| 20260506210506 | 45 | 257 | 8.0 | 12.0 | 0.00 | 0.00 | 0.00 | 50 | 1016.7 |
| 20260506210024 | 45 | 323 | 6.0 | 13.0 | 0.00 | 0.00 | 0.00 | 50 | 1016.7 |
| 20260506205509 | 45 | 287 | 9.0 | 19.0 | 0.00 | 0.00 | 0.00 | 50 | 1016.7 |
| 20260506205006 | 45 | 293 | 9.0 | 19.0 | 0.00 | 0.00 | 0.00 | 49 | 1016.8 |
| 20260506204518 | 44 | 227 | 6.0 | 19.0 | 0.00 | 0.00 | 0.00 | 50 | 1016.8 |
| 20260506204011 | 44 | 245 | 11.0 | 19.0 | 0.00 | 0.00 | 0.00 | 50 | 1016.8 |
| 20260506203508 | 44 | 250 | 5.0 | 17.0 | 0.00 | 0.00 | 0.00 | 53 | 1016.8 |
| 20260506203023 | 44 | 265 | 11.0 | 17.0 | 0.00 | 0.00 | 0.00 | 51 | 1016.8 |
| 20260506202509 | 44 | 262 | 4.0 | 17.0 | 0.00 | 0.00 | 0.00 | 52 | 1016.8 |
| 20260506202011 | 44 | 241 | 10.0 | 17.0 | 0.00 | 0.00 | 0.00 | 52 | 1016.9 |
| 20260506201528 | 44 | 229 | 7.0 | 16.0 | 0.00 | 0.00 | 0.00 | 52 | 1016.8 |
| 20260506201008 | 44 | 266 | 9.0 | 16.0 | 0.00 | 0.00 | 0.00 | 53 | 1016.8 |
| 20260506200504 | 43 | 288 | 6.0 | 14.0 | 0.00 | 0.00 | 0.00 | 54 | 1016.9 |
| 20260506200012 | 43 | 259 | 8.0 | 14.0 | 0.00 | 0.00 | 0.00 | 53 | 1017.0 |
| 20260506195506 | 43 | 259 | 4.0 | 13.0 | 0.00 | 0.00 | 0.00 | 55 | 1017.1 |
| 20260506195007 | 43 | 219 | 8.0 | 13.0 | 0.00 | 0.00 | 0.00 | 54 | 1017.1 |
| 20260506194523 | 43 | 254 | 5.0 | 16.0 | 0.00 | 0.00 | 0.00 | 54 | 1017.1 |
| 20260506194009 | 43 | 247 | 10.0 | 16.0 | 0.00 | 0.00 | 0.00 | 53 | 1017.1 |
| 20260506193508 | 43 | 247 | 8.0 | 17.0 | 0.00 | 0.00 | 0.00 | 53 | 1017.1 |
| 20260506193024 | 43 | 259 | 9.0 | 17.0 | 0.00 | 0.00 | 0.00 | 53 | 1017.0 |
| 20260506192503 | 43 | 257 | 8.0 | 13.0 | 0.00 | 0.00 | 0.00 | 52 | 1017.1 |
| 20260506192009 | 44 | 219 | 7.0 | 13.0 | 0.00 | 0.00 | 0.00 | 52 | 1017.0 |
| 20260506191526 | 43 | 335 | 7.0 | 19.0 | 0.00 | 0.00 | 0.00 | 53 | 1017.1 |
| 20260506191002 | 43 | 250 | 7.0 | 19.0 | 0.00 | 0.00 | 0.00 | 54 | 1017.2 |
| 20260506190508 | 43 | 311 | 10.0 | 19.0 | 0.00 | 0.00 | 0.00 | 54 | 1017.1 |
| 20260506190021 | 43 | 291 | 9.0 | 17.0 | 0.00 | 0.00 | 0.00 | 52 | 1017.1 |
| 20260506185506 | 43 | 282 | 8.0 | 18.0 | 0.00 | 0.00 | 0.00 | 51 | 1017.1 |
| 20260506185006 | 43 | 262 | 11.0 | 18.0 | 0.00 | 0.00 | 0.00 | 53 | 1017.2 |
| 20260506184519 | 43 | 255 | 9.0 | 17.0 | 0.00 | 0.00 | 0.00 | 53 | 1017.2 |
| 20260506184008 | 43 | 277 | 6.0 | 14.0 | 0.00 | 0.00 | 0.00 | 56 | 1017.2 |
| 20260506183510 | 43 | 261 | 6.0 | 15.0 | 0.00 | 0.00 | 0.00 | 53 | 1017.2 |
| 20260506183016 | 43 | 281 | 9.0 | 16.0 | 0.00 | 0.00 | 0.00 | 53 | 1017.2 |
| 20260506182507 | 43 | 307 | 9.0 | 17.0 | 0.00 | 0.00 | 0.00 | 54 | 1017.2 |
| 20260506182014 | 42 | 240 | 8.0 | 17.0 | 0.00 | 0.00 | 0.00 | 54 | 1017.1 |
| 20260506181512 | 42 | 259 | 8.0 | 14.0 | 0.00 | 0.00 | 0.00 | 54 | 1017.2 |
| 20260506181004 | 42 | 273 | 6.0 | 14.0 | 0.00 | 0.00 | 0.00 | 54 | 1017.2 |
| 20260506180506 | 42 | 298 | 8.0 | 17.0 | 0.00 | 0.00 | 0.00 | 53 | 1017.2 |
| 20260506180021 | 42 | 245 | 8.0 | 17.0 | 0.00 | 0.00 | 0.00 | 52 | 1017.2 |
| 20260506175503 | 42 | 269 | 6.0 | 16.0 | 0.00 | 0.00 | 0.00 | 53 | 1017.2 |
| 20260506175008 | 42 | 219 | 6.0 | 16.0 | 0.00 | 0.00 | 0.00 | 54 | 1017.2 |
| 20260506174523 | 42 | 280 | 9.0 | 16.0 | 0.00 | 0.00 | 0.00 | 55 | 1017.2 |
| 20260506174007 | 41 | 236 | 9.0 | 16.0 | 0.00 | 0.00 | 0.00 | 56 | 1017.4 |
| 20260506173508 | 41 | 304 | 5.0 | 12.0 | 0.00 | 0.00 | 0.00 | 58 | 1017.4 |
| 20260506173027 | 40 | 298 | 5.0 | 17.0 | 0.00 | 0.00 | 0.00 | 57 | 1017.4 |
| 20260506172507 | 40 | 247 | 8.0 | 17.0 | 0.00 | 0.00 | 0.00 | 56 | 1017.4 |
| 20260506172007 | 40 | 268 | 7.0 | 16.0 | 0.00 | 0.00 | 0.00 | 55 | 1017.5 |
| 20260506171524 | 40 | 270 | 8.0 | 17.0 | 0.00 | 0.00 | 0.00 | 55 | 1017.5 |
| 20260506171007 | 40 | 334 | 9.0 | 18.0 | 0.00 | 0.00 | 0.00 | 55 | 1017.5 |
| 20260506170504 | 40 | 279 | 10.0 | 18.0 | 0.00 | 0.00 | 0.00 | 55 | 1017.5 |
| 20260506170016 | 40 | 248 | 10.0 | 17.0 | 0.00 | 0.00 | 0.00 | 55 | 1017.5 |
| 20260506165507 | 39 | 255 | 7.0 | 20.0 | 0.00 | 0.00 | 0.00 | 55 | 1017.6 |
| 20260506165005 | 39 | 262 | 10.0 | 20.0 | 0.00 | 0.00 | 0.00 | 56 | 1017.6 |
| 20260506164503 | 39 | 281 | 9.0 | 20.0 | 0.00 | 0.00 | 0.00 | 55 | 1017.6 |
| 20260506164003 | 40 | 268 | 11.0 | 20.0 | 0.00 | 0.00 | 0.00 | 56 | 1017.7 |
| 20260506163504 | 39 | 306 | 7.0 | 16.0 | 0.00 | 0.00 | 0.00 | 57 | 1017.7 |
| 20260506163017 | 39 | 254 | 8.0 | 16.0 | 0.00 | 0.00 | 0.00 | 56 | 1017.6 |
| 20260506162505 | 39 | 286 | 11.0 | 15.0 | 0.00 | 0.00 | 0.00 | 56 | 1017.6 |
| 20260506162007 | 39 | 323 | 5.0 | 17.0 | 0.00 | 0.00 | 0.00 | 56 | 1017.6 |
| 20260506161508 | 39 | 267 | 10.0 | 17.0 | 0.00 | 0.00 | 0.00 | 54 | 1017.6 |
| 20260506161004 | 39 | 244 | 11.0 | 15.0 | 0.00 | 0.00 | 0.00 | 55 | 1017.5 |
| 20260506160506 | 39 | 295 | 7.0 | 14.0 | 0.00 | 0.00 | 0.00 | 55 | 1017.5 |
| 20260506160007 | 39 | 178 | 6.0 | 13.0 | 0.00 | 0.00 | 0.00 | 56 | 1017.5 |
| 20260506155502 | 39 | 284 | 6.0 | 12.0 | 0.00 | 0.00 | 0.00 | 56 | 1017.5 |
| 20260506155002 | 39 | 340 | 5.0 | 10.0 | 0.00 | 0.00 | 0.00 | 57 | 1017.5 |
| 20260506154509 | 39 | 232 | 5.0 | 12.0 | 0.00 | 0.00 | 0.00 | 57 | 1017.5 |
| 20260506154003 | 39 | 298 | 4.0 | 12.0 | 0.00 | 0.00 | 0.00 | 58 | 1017.5 |
| 20260506153503 | 39 | 315 | 5.0 | 12.0 | 0.00 | 0.00 | 0.00 | 56 | 1017.4 |
| 20260506153011 | 39 | 316 | 5.0 | 15.0 | 0.00 | 0.00 | 0.00 | 56 | 1017.5 |
| 20260506152503 | 39 | 241 | 6.0 | 15.0 | 0.00 | 0.00 | 0.00 | 57 | 1017.4 |
| 20260506152006 | 39 | 262 | 6.0 | 13.0 | 0.00 | 0.00 | 0.00 | 57 | 1017.4 |
| 20260506151517 | 39 | 33 | 6.0 | 12.0 | 0.00 | 0.00 | 0.00 | 57 | 1017.5 |
| 20260506151003 | 38 | 205 | 7.0 | 15.0 | 0.00 | 0.00 | 0.00 | 59 | 1017.4 |
| 20260506150504 | 38 | 297 | 8.0 | 15.0 | 0.00 | 0.00 | 0.00 | 57 | 1017.4 |
| 20260506150014 | 38 | 286 | 8.0 | 14.0 | 0.00 | 0.00 | 0.00 | 58 | 1017.3 |
| 20260506145505 | 38 | 295 | 3.0 | 14.0 | 0.00 | 0.00 | 0.00 | 58 | 1017.3 |
| 20260506145005 | 38 | 259 | 9.0 | 14.0 | 0.00 | 0.00 | 0.00 | 58 | 1017.4 |
| 20260506144506 | 38 | 242 | 7.0 | 12.0 | 0.00 | 0.00 | 0.00 | 59 | 1017.4 |
| 20260506144004 | 38 | 273 | 7.0 | 12.0 | 0.00 | 0.00 | 0.00 | 59 | 1017.4 |
| 20260506143507 | 37 | 309 | 2.0 | 12.0 | 0.00 | 0.00 | 0.00 | 59 | 1017.3 |
| 20260506143011 | 37 | 303 | 6.0 | 12.0 | 0.00 | 0.00 | 0.00 | 60 | 1017.3 |
| 20260506142506 | 37 | 28 | 4.0 | 14.0 | 0.00 | 0.00 | 0.00 | 61 | 1017.3 |
| 20260506142006 | 37 | 221 | 6.0 | 14.0 | 0.00 | 0.00 | 0.00 | 58 | 1017.3 |
| 20260506141508 | 37 | 255 | 6.0 | 13.0 | 0.00 | 0.00 | 0.00 | 61 | 1017.3 |
| 20260506141007 | 37 | 237 | 7.0 | 13.0 | 0.00 | 0.00 | 0.00 | 61 | 1017.3 |
| 20260506140504 | 37 | 277 | 6.0 | 10.0 | 0.00 | 0.00 | 0.00 | 61 | 1017.3 |
| 20260506140029 | 37 | 284 | 3.0 | 11.0 | 0.00 | 0.00 | 0.00 | 62 | 1017.3 |
| 20260506135503 | 36 | 304 | 6.0 | 12.0 | 0.00 | 0.00 | 0.00 | 61 | 1017.3 |
| 20260506135002 | 36 | 321 | 5.0 | 12.0 | 0.00 | 0.00 | 0.00 | 62 | 1017.2 |
| 20260506134506 | 36 | 321 | 5.0 | 11.0 | 0.00 | 0.00 | 0.00 | 63 | 1017.2 |
| 20260506134005 | 36 | 271 | 4.0 | 13.0 | 0.00 | 0.00 | 0.00 | 62 | 1017.1 |
| 20260506133503 | 36 | 286 | 6.0 | 13.0 | 0.00 | 0.00 | 0.00 | 64 | 1017.1 |
| 20260506133013 | 36 | 291 | 4.0 | 11.0 | 0.00 | 0.00 | 0.00 | 67 | 1017.1 |
| 20260506132508 | 36 | 240 | 3.0 | 10.0 | 0.00 | 0.00 | 0.00 | 69 | 1017.1 |
| 20260506132003 | 36 | 241 | 5.0 | 10.0 | 0.00 | 0.00 | 0.00 | 70 | 1017.0 |
| 20260506131519 | 36 | 254 | 4.0 | 10.0 | 0.00 | 0.00 | 0.00 | 70 | 1016.9 |
| 20260506131010 | 36 | 248 | 6.0 | 10.0 | 0.00 | 0.00 | 0.00 | 70 | 1016.9 |
| 20260506130505 | 35 | 265 | 6.0 | 9.0 | 0.00 | 0.00 | 0.00 | 71 | 1016.7 |
| 20260506130012 | 35 | 281 | 4.0 | 9.0 | 0.00 | 0.00 | 0.00 | 71 | 1016.7 |
| 20260506125503 | 35 | 257 | 4.0 | 8.0 | 0.00 | 0.00 | 0.00 | 72 | 1016.7 |
| 20260506125004 | 35 | 205 | 4.0 | 8.0 | 0.00 | 0.00 | 0.00 | 72 | 1016.6 |
| 20260506124509 | 35 | 225 | 4.0 | 8.0 | 0.00 | 0.00 | 0.00 | 72 | 1016.5 |
| 20260506124006 | 35 | 261 | 4.0 | 7.0 | 0.00 | 0.00 | 0.00 | 73 | 1016.5 |
| 20260506123505 | 34 | 252 | 3.0 | 7.0 | 0.00 | 0.00 | 0.00 | 73 | 1016.3 |
| 20260506123016 | 34 | 268 | 4.0 | 7.0 | 0.00 | 0.00 | 0.00 | 74 | 1016.4 |
| 20260506122503 | 34 | 249 | 3.0 | 7.0 | 0.00 | 0.00 | 0.00 | 74 | 1016.3 |
| 20260506122007 | 34 | 250 | 3.0 | 7.0 | 0.00 | 0.00 | 0.00 | 75 | 1016.2 |
| 20260506121519 | 33 | 287 | 2.0 | 4.0 | 0.00 | 0.00 | 0.00 | 75 | 1016.1 |
| 20260506121003 | 33 | 238 | 2.0 | 5.0 | 0.00 | 0.00 | 0.00 | 76 | 1016.0 |
| 20260506120504 | 33 | 265 | 2.0 | 5.0 | 0.00 | 0.00 | 0.00 | 76 | 1015.9 |
| 20260506120020 | 32 | 287 | 1.0 | 4.0 | 0.00 | 0.00 | 0.00 | 76 | 1015.9 |
| 20260506115503 | 32 | 275 | 2.0 | 7.0 | 0.00 | 0.00 | 0.00 | 76 | 1016.0 |
| 20260506115003 | 31 | 298 | 3.0 | 7.0 | 0.00 | 0.00 | 0.00 | 77 | 1015.8 |
| 20260506114508 | 31 | 321 | 3.0 | 7.0 | 0.00 | 0.00 | 0.00 | 77 | 1015.7 |
| 20260506114005 | 31 | 295 | 2.0 | 7.0 | 0.00 | 0.00 | 0.00 | 77 | 1015.5 |
| 20260506113503 | 30 | 288 | 2.0 | 8.0 | 0.00 | 0.00 | 0.00 | 77 | 1015.4 |
| 20260506113014 | 30 | 309 | 4.0 | 8.0 | 0.00 | 0.00 | 0.00 | 77 | 1015.4 |
| 20260506112504 | 30 | 275 | 3.0 | 6.0 | 0.00 | 0.00 | 0.00 | 77 | 1015.4 |
| 20260506112006 | 30 | 272 | 2.0 | 7.0 | 0.00 | 0.00 | 0.00 | 77 | 1015.3 |
| 20260506111515 | 30 | 317 | 3.0 | 7.0 | 0.00 | 0.00 | 0.00 | 77 | 1015.3 |
| 20260506111006 | 30 | 309 | 2.0 | 4.0 | 0.00 | 0.00 | 0.00 | 77 | 1015.3 |
| 20260506110507 | 31 | 296 | 2.0 | 4.0 | 0.00 | 0.00 | 0.00 | 77 | 1015.2 |
| 20260506110026 | 30 | 315 | 2.0 | 4.0 | 0.00 | 0.00 | 0.00 | 77 | 1015.3 |
| 20260506105503 | 30 | 284 | 2.0 | 4.0 | 0.00 | 0.00 | 0.00 | 77 | 1015.5 |
| 20260506105006 | 30 | 273 | 2.0 | 6.0 | 0.00 | 0.00 | 0.00 | 77 | 1015.5 |
| 20260506104512 | 30 | 255 | 3.0 | 7.0 | 0.00 | 0.00 | 0.00 | 77 | 1015.6 |
| 20260506104005 | 30 | 242 | 2.0 | 7.0 | 0.00 | 0.00 | 0.00 | 77 | 1015.6 |
| 20260506103507 | 30 | 255 | 4.0 | 7.0 | 0.00 | 0.00 | 0.00 | 77 | 1015.6 |
| 20260506103019 | 30 | 269 | 3.0 | 8.0 | 0.00 | 0.00 | 0.00 | 77 | 1015.6 |
| 20260506102507 | 30 | 279 | 4.0 | 8.0 | 0.00 | 0.00 | 0.00 | 76 | 1015.7 |
| 20260506102006 | 30 | 269 | 5.0 | 8.0 | 0.00 | 0.00 | 0.00 | 76 | 1015.5 |
| 20260506101521 | 30 | 248 | 4.0 | 7.0 | 0.00 | 0.00 | 0.00 | 76 | 1015.4 |
| 20260506101006 | 30 | 257 | 3.0 | 7.0 | 0.00 | 0.00 | 0.00 | 75 | 1015.3 |
| 20260506100503 | 30 | 289 | 3.0 | 7.0 | 0.00 | 0.00 | 0.00 | 75 | 1015.2 |
| 20260506100018 | 30 | 254 | 2.0 | 6.0 | 0.00 | 0.00 | 0.00 | 75 | 1015.2 |
| 20260506095503 | 30 | 273 | 3.0 | 8.0 | 0.00 | 0.00 | 0.00 | 75 | 1015.1 |
| 20260506095004 | 30 | 248 | 3.0 | 8.0 | 0.00 | 0.00 | 0.00 | 75 | 1015.1 |
| 20260506094517 | 30 | 272 | 3.0 | 7.0 | 0.00 | 0.00 | 0.00 | 74 | 1015.2 |
| 20260506094008 | 31 | 254 | 3.0 | 7.0 | 0.00 | 0.00 | 0.00 | 74 | 1015.1 |
| 20260506093507 | 31 | 249 | 3.0 | 7.0 | 0.00 | 0.00 | 0.00 | 73 | 1015.3 |
| 20260506093021 | 31 | 255 | 3.0 | 7.0 | 0.00 | 0.00 | 0.00 | 73 | 1015.2 |
| 20260506092504 | 31 | 287 | 2.0 | 7.0 | 0.00 | 0.00 | 0.00 | 73 | 1015.0 |
| 20260506092007 | 31 | 277 | 2.0 | 7.0 | 0.00 | 0.00 | 0.00 | 73 | 1015.0 |
| 20260506091526 | 31 | 242 | 2.0 | 8.0 | 0.00 | 0.00 | 0.00 | 72 | 1015.0 |
| 20260506091007 | 31 | 275 | 4.0 | 8.0 | 0.00 | 0.00 | 0.00 | 73 | 1015.1 |
| 20260506090506 | 31 | 275 | 4.0 | 7.0 | 0.00 | 0.00 | 0.00 | 73 | 1015.2 |
| 20260506090025 | 31 | 261 | 4.0 | 8.0 | 0.00 | 0.00 | 0.00 | 73 | 1015.2 |
| 20260506085503 | 31 | 272 | 4.0 | 8.0 | 0.00 | 0.00 | 0.00 | 73 | 1015.2 |
| 20260506085003 | 31 | 248 | 4.0 | 8.0 | 0.00 | 0.00 | 0.00 | 73 | 1015.0 |
| 20260506084517 | 31 | 257 | 3.0 | 8.0 | 0.00 | 0.00 | 0.00 | 72 | 1014.9 |
| 20260506084007 | 31 | 275 | 3.0 | 7.0 | 0.00 | 0.00 | 0.00 | 71 | 1014.8 |
| 20260506083506 | 31 | 287 | 2.0 | 5.0 | 0.00 | 0.00 | 0.00 | 70 | 1014.7 |
| 20260506083027 | 31 | 265 | 1.0 | 4.0 | 0.00 | 0.00 | 0.00 | 69 | 1014.6 |
| 20260506082509 | 31 | 273 | 1.0 | 4.0 | 0.00 | 0.00 | 0.00 | 68 | 1014.7 |
| 20260506082006 | 32 | 282 | 1.0 | 3.0 | 0.00 | 0.00 | 0.00 | 67 | 1014.7 |
| 20260506081514 | 32 | 287 | 1.0 | 3.0 | 0.00 | 0.00 | 0.00 | 67 | 1014.7 |
| 20260506081012 | 32 | 309 | 1.0 | 3.0 | 0.00 | 0.00 | 0.00 | 66 | 1014.8 |
| 20260506080509 | 32 | 293 | 1.0 | 4.0 | 0.00 | 0.00 | 0.00 | 65 | 1014.9 |
| 20260506073509 | 34 | 295 | 1.0 | 3.0 | 0.00 | 0.00 | 0.00 | 64 | 1014.8 |
| 20260506073023 | 34 | 298 | 1.0 | 4.0 | 0.00 | 0.00 | 0.00 | 64 | 1014.7 |
| 20260506072510 | 34 | 304 | 1.0 | 7.0 | 0.00 | 0.00 | 0.00 | 64 | 1014.7 |
| 20260506072008 | 34 | 287 | 3.0 | 8.0 | 0.00 | 0.00 | 0.00 | 63 | 1014.6 |
| 20260506071523 | 34 | 312 | 2.0 | 8.0 | 0.00 | 0.00 | 0.00 | 63 | 1014.5 |
| 20260506071009 | 34 | 336 | 2.0 | 10.0 | 0.00 | 0.00 | 0.00 | 63 | 1014.5 |
| 20260506070504 | 34 | 316 | 5.0 | 10.0 | 0.00 | 0.00 | 0.00 | 63 | 1014.5 |
| 20260506062513 | 35 | 57 | 2.0 | 9.0 | 0.00 | 0.00 | 0.00 | 62 | 1014.5 |
| 20260506062009 | 35 | 337 | 3.0 | 13.0 | 0.00 | 0.00 | 0.00 | 61 | 1014.4 |
| 20260506061528 | 35 | 325 | 3.0 | 13.0 | 0.00 | 0.00 | 0.00 | 61 | 1014.4 |
| 20260506061007 | 35 | 329 | 5.0 | 10.0 | 0.00 | 0.00 | 0.00 | 62 | 1014.5 |